Regional Weather Roundup
Issued by NWS Mt. Holly, NJ

Home | Current Version | Previous Version | Text Only | Print | Product List | Glossary On
Versions: 1 2 3 4 5 6 7 8 9 10 11 12 13 14 15 16 17 18 19 20 21 22 23 24 25 26 27
000
ASUS41 KPHI 210910
RWRPHI

REGIONAL WEATHER ROUNDUP
NATIONAL WEATHER SERVICE MOUNT HOLLY NJ
500 AM EDT MON APR 21 2014

NOTE:  "FAIR" INDICATES FEW OR NO CLOUDS BELOW 12,000 FEET WITH NO
SIGNIFICANT WEATHER AND/OR OBSTRUCTIONS TO VISIBILITY.

 * = STATION DOES NOT REPORT PRECIPITATION (E.G. RAIN, SNOW, ETC.)
        OR FOG.

NJZ015>026-211000-
SOUTHERN NEW JERSEY

CITY           SKY/WX    TMP DP  RH WIND       PRES   REMARKS
POMONA         CLEAR     32  29  88 N5        30.21F WCI  27
RIO GRANDE*    CLEAR     36  30  80 N5        30.21F WCI  32
MILLVILLE      CLEAR     38  31  76 NE5       30.21F WCI  34
WRIGHTSTOWN    CLEAR     34  27  75 N3        30.21F
MOUNT HOLLY    CLEAR     33  27  78 CALM      30.23F
TRENTON        CLEAR     36  25  64 N5        30.22F WCI  32

$$
NJZ001>014-211000-
NORTHERN NEW JERSEY

CITY           SKY/WX    TMP DP  RH WIND       PRES   REMARKS
SUSSEX         CLEAR     31  27  85 CALM      30.23F
ANDOVER*         N/A     31  28  89 CALM      30.23F
MORRISTOWN     CLEAR     32  30  93 CALM      30.24F
NEWARK         CLEAR     38  27  64 N6        30.24F WCI  33
TETERBORO      CLEAR     40  29  64 CALM      30.23F
CALDWELL       CLEAR     34  29  82 CALM      30.25F
SOMERVILLE     CLEAR     29  26  89 NW3       30.23F
ALLAIRE*       CLEAR     36  28  75 N5        30.22F WCI  32
TOMS RIVER*    CLEAR     28  27  93 CALM      30.23F

$$
PAZ043-044-047-054-055-060>062-066>071-211000-
EASTERN PENNSYLVANIA

CITY           SKY/WX    TMP DP  RH WIND       PRES   REMARKS
PHILADELPHIA   PTCLDY    40  25  55 NE6       30.25S
NORTH PHILA    CLEAR     39  23  52 CALM      30.25F
BLUE BELL      CLEAR     34  30  86 CALM      30.23S
DOYLESTOWN     CLEAR     33  27  78 CALM      30.23S
QUAKERTOWN*    CLEAR     30  28  93 CALM      30.23F
POTTSTOWN      CLEAR     33  27  78 CALM      30.25S
LANCASTER      CLEAR     35  27  72 CALM      30.22F
COATESVILLE    CLEAR     37  23  56 CALM      30.23S
READING        CLEAR     37  29  72 CALM      30.23S
ALLENTOWN      CLEAR     32  26  78 CALM      30.23F
MOUNT POCONO   CLEAR     31  23  72 CALM      30.18F
HAZLETON       CLEAR     34  27  75 CALM      30.22S
WILKES BARRE   CLEAR     37  23  56 S6        30.20S WCI  32

$$
DEZALL-MDZ008-012-015-019-020-211000-
DELAWARE AND EASTERN MARYLAND

CITY           SKY/WX    TMP DP  RH WIND       PRES   REMARKS
WILMINGTON     CLEAR     35  26  69 N5        30.24S WCI  31
DOVER          CLEAR     34  33  96 N7        30.18F WCI  28
GEORGETOWN     CLEAR     42  36  79 N6        30.20F
EASTON         CLEAR     38  31  74 CALM      30.25F
PATUXENT       PTCLDY    43  33  68 N7        30.20F
OCEAN CITY     PTCLDY    45  40  82 NE9       30.17F
WALLOPS ISLAND CLEAR     41  38  89 N7        30.15F
SALISBURY      CLEAR     40  35  83 N5        30.18F

$$
PAZ001-021-NYZ056-072-MDZ011-DCZ001-211000-
OTHER NEARBY LOCATIONS

CITY           SKY/WX    TMP DP  RH WIND       PRES   REMARKS
HARRISBURG     PTCLDY    41  30  65 CALM      30.22F
STATE COLLEGE  PTCLDY    47  28  47 CALM      30.18S
WILLIAMSPORT   CLEAR     41  31  67 NE5       30.20S
BINGHAMTON     CLEAR     41  27  57 S5        30.16F
NEW YORK CITY  CLEAR     43  26  51 VRB3      30.25F
BALTIMORE      PTCLDY    35  29  78 CALM      30.22S
WASHINGTON DC  PTCLDY    45  29  53 NE5       30.23F

$$



USA.gov is the U.S. government's official web portal to all federal, state and local government web resources and services.